owner,sensor,date,latitude,longitude,vertical_datum,wind_speed,wind_to_direction,wind_speed_of_gust,qcFlag 
TABS,ioos:station:wmo:42043:1,2002-09-01T00:09:00Z,28.9818,-94.9186,4.0,4.822955525,84.4072076,6.94,'11111222,11111222,11111222' 
TABS,ioos:station:wmo:42043:1,2002-09-01T00:39:00Z,28.9818,-94.9186,4.0,5.052019398,80.31354185,7.2,'11111222,11111222,11111222' 
TABS,ioos:station:wmo:42043:1,2002-09-01T01:09:00Z,28.9818,-94.9186,4.0,4.787065907,93.11385238,6.97,'11111222,11111222,11111222' 
TABS,ioos:station:wmo:42043:1,2002-09-01T01:39:00Z,28.9818,-94.9186,4.0,4.985308416,92.64472629,7.09,'11111222,11111222,11111222' 
TABS,ioos:station:wmo:42043:1,2002-09-01T02:09:00Z,28.9818,-94.9186,4.0,5.358553909,98.4782962,7.49,'11111222,11111222,11111222' 
TABS,ioos:station:wmo:42043:1,2002-09-01T02:39:00Z,28.9818,-94.9186,4.0,5.085400673,101.6859583,7.67,'11111222,11111222,11111222' 
TABS,ioos:station:wmo:42043:1,2002-09-01T03:09:00Z,28.9818,-94.9186,4.0,5.447063429,100.2582025,8.38,'11111222,11111222,11111222' 
TABS,ioos:station:wmo:42043:1,2002-09-01T05:39:00Z,28.9818,-94.9186,4.0,5.485152687,96.4905559,7.62,'11111222,11111222,11111222' 
TABS,ioos:station:wmo:42043:1,2002-09-01T06:09:00Z,28.9818,-94.9186,4.0,5.107768593,96.97237286,7.44,'11111222,11111222,11111222' 
TABS,ioos:station:wmo:42043:1,2002-09-01T06:39:00Z,28.9818,-94.9186,4.0,5.36,90.00042092,7.5,'11111222,11111222,11111222' 
TABS,ioos:station:wmo:42043:1,2002-09-01T07:09:00Z,28.9818,-94.9186,4.0,4.780794913,99.14747991,7.29,'11111222,11111222,11111222' 
TABS,ioos:station:wmo:42043:1,2002-09-01T07:39:00Z,28.9818,-94.9186,4.0,4.745113276,135.7687656,6.86,'11111222,11111222,11111222' 
TABS,ioos:station:wmo:42043:1,2002-09-01T08:09:00Z,28.9818,-94.9186,4.0,4.269191961,108.8597311,9.01,'11111222,11111222,11111222' 
TABS,ioos:station:wmo:42043:1,2002-09-01T08:39:00Z,28.9818,-94.9186,4.0,2.715529414,96.13089531,4.89,'11111222,11111222,11111222' 
TABS,ioos:station:wmo:42043:1,2002-09-01T09:09:00Z,28.9818,-94.9186,4.0,2.410995645,84.52546368,4.31,'11111222,11111222,11111222' 
TABS,ioos:station:wmo:42043:1,2002-09-01T09:39:00Z,28.9818,-94.9186,4.0,3.112378512,101.4908419,5.27,'11111222,11111222,11111222' 
TABS,ioos:station:wmo:42043:1,2002-09-01T10:09:00Z,28.9818,-94.9186,4.0,2.901396216,88.2220089,5.29,'11111222,11111222,11111222' 
TABS,ioos:station:wmo:42043:1,2002-09-01T10:39:00Z,28.9818,-94.9186,4.0,1.127208942,111.3298326,3.2,'11111222,11111222,11111222' 
TABS,ioos:station:wmo:42043:1,2002-09-01T11:09:00Z,28.9818,-94.9186,4.0,3.54866172,75.14099938,5.37,'11111222,11111222,11111222' 
TABS,ioos:station:wmo:42043:1,2002-09-01T11:39:00Z,28.9818,-94.9186,4.0,3.461618119,62.84240806,5.52,'11111222,11111222,11111222' 
TABS,ioos:station:wmo:42043:1,2002-09-01T12:09:00Z,28.9818,-94.9186,4.0,4.503876108,60.75970075,6.89,'11111222,11111222,11111222' 
TABS,ioos:station:wmo:42043:1,2002-09-01T12:39:00Z,28.9818,-94.9186,4.0,4.445998201,49.28655587,6.13,'11111222,11111222,11111222' 
TABS,ioos:station:wmo:42043:1,2002-09-01T13:09:00Z,28.9818,-94.9186,4.0,4.801301907,61.51299653,6.73,'11111222,11111222,11111222' 
TABS,ioos:station:wmo:42043:1,2002-09-01T13:39:00Z,28.9818,-94.9186,4.0,4.519701318,51.55763907,6.61,'11111222,11111222,11111222' 
TABS,ioos:station:wmo:42043:1,2002-09-01T14:09:00Z,28.9818,-94.9186,4.0,8.52484604,47.94752074,11.55,'11111222,11111222,11111222' 
TABS,ioos:station:wmo:42043:1,2002-09-01T14:39:00Z,28.9818,-94.9186,4.0,6.040943635,31.87440093,9.06,'11111222,11111222,11111222' 
TABS,ioos:station:wmo:42043:1,2002-09-01T15:09:00Z,28.9818,-94.9186,4.0,5.911860959,59.61764102,8.51,'11111222,11111222,11111222' 
TABS,ioos:station:wmo:42043:1,2002-09-01T15:39:00Z,28.9818,-94.9186,4.0,5.931239331,55.02346824,8.38,'11111222,11111222,11111222' 
TABS,ioos:station:wmo:42043:1,2002-09-01T16:09:00Z,28.9818,-94.9186,4.0,6.475955528,48.63064449,9.14,'11111222,11111222,11111222' 
TABS,ioos:station:wmo:42043:1,2002-09-01T16:39:00Z,28.9818,-94.9186,4.0,6.459055659,61.01396998,9.9,'11111222,11111222,11111222' 
TABS,ioos:station:wmo:42043:1,2002-09-01T17:09:00Z,28.9818,-94.9186,4.0,6.869272159,50.49312503,9.6,'11111222,11111222,11111222' 
TABS,ioos:station:wmo:42043:1,2002-09-01T17:39:00Z,28.9818,-94.9186,4.0,6.423488149,56.55697933,9.6,'11111222,11111222,11111222' 
TABS,ioos:station:wmo:42043:1,2002-09-01T18:09:00Z,28.9818,-94.9186,4.0,6.589233643,59.54292283,9.27,'11111222,11111222,11111222' 
TABS,ioos:station:wmo:42043:1,2002-09-01T18:39:00Z,28.9818,-94.9186,4.0,6.238789947,63.84530446,9.05,'11111222,11111222,11111222' 
TABS,ioos:station:wmo:42043:1,2002-09-01T19:09:00Z,28.9818,-94.9186,4.0,6.652976777,54.11158729,9.13,'11111222,11111222,11111222' 
TABS,ioos:station:wmo:42043:1,2002-09-01T19:39:00Z,28.9818,-94.9186,4.0,7.216785988,55.9572772,10.21,'11111222,11111222,11111222' 
TABS,ioos:station:wmo:42043:1,2002-09-01T20:09:00Z,28.9818,-94.9186,4.0,7.009037024,62.37435769,9.87,'11111222,11111222,11111222' 
TABS,ioos:station:wmo:42043:1,2002-09-01T20:39:00Z,28.9818,-94.9186,4.0,6.578221644,70.73835116,9.93,'11111222,11111222,11111222' 
TABS,ioos:station:wmo:42043:1,2002-09-01T21:09:00Z,28.9818,-94.9186,4.0,6.25936099,69.42215499,8.91,'11111222,11111222,11111222' 
TABS,ioos:station:wmo:42043:1,2002-09-01T21:39:00Z,28.9818,-94.9186,4.0,5.80573854,79.58000669,8.85,'11111222,11111222,11111222' 
TABS,ioos:station:wmo:42043:1,2002-09-01T22:09:00Z,28.9818,-94.9186,4.0,5.794290293,84.75144767,8.68,'11111222,11111222,11111222' 
TABS,ioos:station:wmo:42043:1,2002-09-01T22:39:00Z,28.9818,-94.9186,4.0,5.396267228,87.23792237,8.47,'11111222,11111222,11111222' 
TABS,ioos:station:wmo:42043:1,2002-09-01T23:09:00Z,28.9818,-94.9186,4.0,5.994614249,83.00498515,8.78,'11111222,11111222,11111222' 
TABS,ioos:station:wmo:42043:1,2002-09-01T23:39:00Z,28.9818,-94.9186,4.0,6.040074503,89.7150004,9.05,'11111222,11111222,11111222' 
TABS,ioos:station:wmo:42043:1,2002-09-02T00:09:00Z,28.9818,-94.9186,4.0,5.326434079,95.7110007,7.9,'11111222,11111222,11111222' 
TABS,ioos:station:wmo:42043:1,2002-09-02T00:39:00Z,28.9818,-94.9186,4.0,4.624943243,105.8096452,7.23,'11111222,11111222,11111222' 
TABS,ioos:station:wmo:42043:1,2002-09-02T01:09:00Z,28.9818,-94.9186,4.0,4.613133425,102.1385226,7.54,'11111222,11111222,11111222' 
TABS,ioos:station:wmo:42043:1,2002-09-02T01:39:00Z,28.9818,-94.9186,4.0,4.512704289,101.6340277,7.06,'11111222,11111222,11111222' 
TABS,ioos:station:wmo:42043:1,2002-09-02T02:09:00Z,28.9818,-94.9186,4.0,4.783272938,101.3338184,7.8,'11111222,11111222,11111222' 
TABS,ioos:station:wmo:42043:1,2002-09-02T03:09:00Z,28.9818,-94.9186,4.0,4.893965672,102.3895161,7.93,'11111222,11111222,11111222' 
TABS,ioos:station:wmo:42043:1,2002-09-02T03:39:00Z,28.9818,-94.9186,4.0,4.183790148,108.8250869,6.59,'11111222,11111222,11111222' 
TABS,ioos:station:wmo:42043:1,2002-09-02T04:09:00Z,28.9818,-94.9186,4.0,4.231146417,108.6066136,6.88,'11111222,11111222,11111222' 
TABS,ioos:station:wmo:42043:1,2002-09-02T04:39:00Z,28.9818,-94.9186,4.0,4.240955081,107.7090225,6.02,'11111222,11111222,11111222' 
TABS,ioos:station:wmo:42043:1,2002-09-02T05:09:00Z,28.9818,-94.9186,4.0,4.105423242,102.3778241,6.26,'11111222,11111222,11111222' 
TABS,ioos:station:wmo:42043:1,2002-09-02T06:09:00Z,28.9818,-94.9186,4.0,3.573149871,87.59361419,6.37,'11111222,11111222,11111222' 
TABS,ioos:station:wmo:42043:1,2002-09-02T06:39:00Z,28.9818,-94.9186,4.0,4.120449005,95.7110007,6.16,'11111222,11111222,11111222' 
TABS,ioos:station:wmo:42043:1,2002-09-02T07:09:00Z,28.9818,-94.9186,4.0,4.219727479,96.80543061,6.49,'11111222,11111222,11111222' 
TABS,ioos:station:wmo:42043:1,2002-09-02T07:39:00Z,28.9818,-94.9186,4.0,4.578667929,99.93588792,7.17,'11111222,11111222,11111222' 
TABS,ioos:station:wmo:42043:1,2002-09-02T08:09:00Z,28.9818,-94.9186,4.0,4.835421388,98.68350151,6.73,'11111222,11111222,11111222' 
TABS,ioos:station:wmo:42043:1,2002-09-02T08:39:00Z,28.9818,-94.9186,4.0,4.282627698,92.00762435,6.08,'11111222,11111222,11111222' 
TABS,ioos:station:wmo:42043:1,2002-09-02T09:09:00Z,28.9818,-94.9186,4.0,4.220106634,90.40772907,6.03,'11111222,11111222,11111222' 
TABS,ioos:station:wmo:42043:1,2002-09-02T09:39:00Z,28.9818,-94.9186,4.0,3.72048384,90.92446411,5.52,'11111222,11111222,11111222' 
TABS,ioos:station:wmo:42043:1,2002-09-02T10:09:00Z,28.9818,-94.9186,4.0,3.3717058,72.74696726,5.16,'11111222,11111222,11111222' 
TABS,ioos:station:wmo:42043:1,2002-09-02T11:09:00Z,28.9818,-94.9186,4.0,3.922206012,68.93065342,5.75,'11111222,11111222,11111222' 
TABS,ioos:station:wmo:42043:1,2002-09-02T11:39:00Z,28.9818,-94.9186,4.0,3.475413644,62.40234775,5.46,'11111222,11111222,11111222' 
TABS,ioos:station:wmo:42043:1,2002-09-02T12:09:00Z,28.9818,-94.9186,4.0,3.468789414,68.16754839,5.45,'11111222,11111222,11111222' 
TABS,ioos:station:wmo:42043:1,2002-09-02T13:09:00Z,28.9818,-94.9186,4.0,5.234500931,9.678026963,8.04,'11111222,11111222,11111222' 
TABS,ioos:station:wmo:42043:1,2002-09-02T13:39:00Z,28.9818,-94.9186,4.0,3.238718883,25.21968602,4.9,'11111222,11111222,11111222' 
TABS,ioos:station:wmo:42043:1,2002-09-02T14:09:00Z,28.9818,-94.9186,4.0,5.023196194,59.09457945,8.39,'11111222,11111222,11111222' 
TABS,ioos:station:wmo:42043:1,2002-09-02T14:39:00Z,28.9818,-94.9186,4.0,5.330459642,50.78589188,8.24,'11111222,11111222,11111222' 
TABS,ioos:station:wmo:42043:1,2002-09-02T15:09:00Z,28.9818,-94.9186,4.0,4.710711199,57.65906149,7.74,'11111222,11111222,11111222' 
TABS,ioos:station:wmo:42043:1,2002-09-02T15:39:00Z,28.9818,-94.9186,4.0,5.078995964,46.59525071,7.88,'11111222,11111222,11111222' 
TABS,ioos:station:wmo:42043:1,2002-09-02T16:39:00Z,28.9818,-94.9186,4.0,5.926921629,43.76917947,8.48,'11111222,11111222,11111222' 
TABS,ioos:station:wmo:42043:1,2002-09-02T17:09:00Z,28.9818,-94.9186,4.0,5.184987946,51.18454209,8.79,'11111222,11111222,11111222' 
TABS,ioos:station:wmo:42043:1,2002-09-02T17:39:00Z,28.9818,-94.9186,4.0,4.746082595,52.79174417,7.69,'11111222,11111222,11111222' 
TABS,ioos:station:wmo:42043:1,2002-09-02T18:09:00Z,28.9818,-94.9186,4.0,4.839969008,60.68058567,7.93,'11111222,11111222,11111222' 
TABS,ioos:station:wmo:42043:1,2002-09-02T18:39:00Z,28.9818,-94.9186,4.0,5.205660381,58.11093854,8.6,'11111222,11111222,11111222' 
TABS,ioos:station:wmo:42043:1,2002-09-02T19:09:00Z,28.9818,-94.9186,4.0,6.170453792,51.51387936,9.43,'11111222,11111222,11111222' 
TABS,ioos:station:wmo:42043:1,2002-09-02T19:39:00Z,28.9818,-94.9186,4.0,6.112847127,56.54355492,8.81,'11111222,11111222,11111222' 
TABS,ioos:station:wmo:42043:1,2002-09-02T20:09:00Z,28.9818,-94.9186,4.0,6.270637926,64.29273452,9.27,'11111222,11111222,11111222' 
TABS,ioos:station:wmo:42043:1,2002-09-02T20:39:00Z,28.9818,-94.9186,4.0,5.91934118,67.02981747,8.69,'11111222,11111222,11111222' 
TABS,ioos:station:wmo:42043:1,2002-09-02T21:09:00Z,28.9818,-94.9186,4.0,5.034918073,72.42836139,7.86,'11111222,11111222,11111222' 
TABS,ioos:station:wmo:42043:1,2002-09-02T21:39:00Z,28.9818,-94.9186,4.0,5.103302852,73.37564967,7.65,'11111222,11111222,11111222' 
TABS,ioos:station:wmo:42043:1,2002-09-02T22:09:00Z,28.9818,-94.9186,4.0,4.973952151,79.45778632,7.34,'11111222,11111222,11111222' 
TABS,ioos:station:wmo:42043:1,2002-09-02T22:39:00Z,28.9818,-94.9186,4.0,4.790594953,75.12212574,7.34,'11111222,11111222,11111222' 
TABS,ioos:station:wmo:42043:1,2002-09-02T23:09:00Z,28.9818,-94.9186,4.0,5.803834939,72.65737335,8.09,'11111222,11111222,11111222' 
TABS,ioos:station:wmo:42043:1,2002-09-02T23:39:00Z,28.9818,-94.9186,4.0,5.506959234,81.75178528,8.16,'11111222,11111222,11111222' 
TABS,ioos:station:wmo:42043:1,2002-09-03T00:09:00Z,28.9818,-94.9186,4.0,5.777412916,81.23835749,8.57,'11111222,11111222,11111222' 
TABS,ioos:station:wmo:42043:1,2002-09-03T00:39:00Z,28.9818,-94.9186,4.0,5.961912445,76.6160164,8.38,'11111222,11111222,11111222' 
TABS,ioos:station:wmo:42043:1,2002-09-03T01:09:00Z,28.9818,-94.9186,4.0,5.78217952,75.57883968,7.7,'11111222,11111222,11111222' 
TABS,ioos:station:wmo:42043:1,2002-09-03T01:39:00Z,28.9818,-94.9186,4.0,5.452017975,81.3493161,7.61,'11111222,11111222,11111222' 
TABS,ioos:station:wmo:42043:1,2002-09-03T02:09:00Z,28.9818,-94.9186,4.0,5.455364332,75.02083947,7.24,'11111222,11111222,11111222' 
TABS,ioos:station:wmo:42043:1,2002-09-03T02:39:00Z,28.9818,-94.9186,4.0,5.794178113,75.91540223,8.41,'11111222,11111222,11111222' 
TABS,ioos:station:wmo:42043:1,2002-09-03T03:09:00Z,28.9818,-94.9186,4.0,4.860092592,90.35409325,6.97,'11111222,11111222,11111222' 
TABS,ioos:station:wmo:42043:1,2002-09-03T03:39:00Z,28.9818,-94.9186,4.0,5.21,90.00042092,7.74,'11111222,11111222,11111222' 
TABS,ioos:station:wmo:42043:1,2002-09-03T04:09:00Z,28.9818,-94.9186,4.0,4.920823102,91.04839511,7.3,'11111222,11111222,11111222' 
TABS,ioos:station:wmo:42043:1,2002-09-03T04:39:00Z,28.9818,-94.9186,4.0,4.015133871,97.5856167,6.94,'11111222,11111222,11111222' 
TABS,ioos:station:wmo:42043:1,2002-09-03T05:09:00Z,28.9818,-94.9186,4.0,4.340414727,89.20752384,6.37,'11111222,11111222,11111222' 
TABS,ioos:station:wmo:42043:1,2002-09-03T05:39:00Z,28.9818,-94.9186,4.0,3.989711769,75.92853826,6.42,'11111222,11111222,11111222' 
TABS,ioos:station:wmo:42043:1,2002-09-03T06:09:00Z,28.9818,-94.9186,4.0,4.21085502,75.13831537,6.25,'11111222,11111222,11111222' 
TABS,ioos:station:wmo:42043:1,2002-09-03T06:39:00Z,28.9818,-94.9186,4.0,4.298150765,72.53426428,7.62,'11111222,11111222,11111222' 
TABS,ioos:station:wmo:42043:1,2002-09-03T07:09:00Z,28.9818,-94.9186,4.0,3.787254943,73.43078865,6.13,'11111222,11111222,11111222' 
TABS,ioos:station:wmo:42043:1,2002-09-03T07:39:00Z,28.9818,-94.9186,4.0,3.325612725,73.58090909,5.54,'11111222,11111222,11111222' 
TABS,ioos:station:wmo:42043:1,2002-09-03T08:09:00Z,28.9818,-94.9186,4.0,2.69267525,78.6479428,4.6,'11111222,11111222,11111222' 
TABS,ioos:station:wmo:42043:1,2002-09-03T08:39:00Z,28.9818,-94.9186,4.0,2.653450584,76.48708004,4.55,'11111222,11111222,11111222' 
TABS,ioos:station:wmo:42043:1,2002-09-03T09:09:00Z,28.9818,-94.9186,4.0,2.546153962,52.49967598,4.85,'11111222,11111222,11111222' 
TABS,ioos:station:wmo:42043:1,2002-09-03T09:39:00Z,28.9818,-94.9186,4.0,2.857481409,54.97478771,7.12,'11111222,11111222,11111222' 
TABS,ioos:station:wmo:42043:1,2002-09-03T10:39:00Z,28.9818,-94.9186,4.0,2.405202694,9.814553262,4.33,'11111222,11111222,11111222' 
TABS,ioos:station:wmo:42043:1,2002-09-03T11:09:00Z,28.9818,-94.9186,4.0,4.877427601,11.47096153,7.95,'11111222,11111222,11111222' 
TABS,ioos:station:wmo:42043:1,2002-09-03T11:39:00Z,28.9818,-94.9186,4.0,6.727087037,12.79647534,9.57,'11111222,11111222,11111222' 
TABS,ioos:station:wmo:42043:1,2002-09-03T12:09:00Z,28.9818,-94.9186,4.0,7.655403321,22.74625977,10.57,'11111222,11111222,11111222' 
TABS,ioos:station:wmo:42043:1,2002-09-03T12:39:00Z,28.9818,-94.9186,4.0,7.927067554,62.01219134,11.41,'11111222,11111222,11111222' 
TABS,ioos:station:wmo:42043:1,2002-09-03T13:09:00Z,28.9818,-94.9186,4.0,7.86569768,33.48774934,10.93,'11111222,11111222,11111222' 
TABS,ioos:station:wmo:42043:1,2002-09-03T13:39:00Z,28.9818,-94.9186,4.0,6.577058613,52.10176269,9.95,'11111222,11111222,11111222' 
TABS,ioos:station:wmo:42043:1,2002-09-03T14:09:00Z,28.9818,-94.9186,4.0,6.632299752,26.21706823,8.93,'11111222,11111222,11111222' 
TABS,ioos:station:wmo:42043:1,2002-09-03T14:39:00Z,28.9818,-94.9186,4.0,8.241510784,21.27184326,11.07,'11111222,11111222,11111222' 
TABS,ioos:station:wmo:42043:1,2002-09-03T15:09:00Z,28.9818,-94.9186,4.0,6.742492121,40.06639288,9.3,'11111222,11111222,11111222' 
TABS,ioos:station:wmo:42043:1,2002-09-03T15:39:00Z,28.9818,-94.9186,4.0,8.04005597,36.65581224,10.79,'11111222,11111222,11111222' 
TABS,ioos:station:wmo:42043:1,2002-09-03T16:09:00Z,28.9818,-94.9186,4.0,8.885988971,28.35288367,11.78,'11111222,11111222,11111222' 
TABS,ioos:station:wmo:42043:1,2002-09-03T16:39:00Z,28.9818,-94.9186,4.0,9.0308416,27.64302402,12.07,'11111222,11111222,11111222' 
TABS,ioos:station:wmo:42043:1,2002-09-03T17:09:00Z,28.9818,-94.9186,4.0,7.101774426,26.42045738,9.77,'11111222,11111222,11111222' 
TABS,ioos:station:wmo:42043:1,2002-09-03T17:39:00Z,28.9818,-94.9186,4.0,7.576575744,12.03641989,11.39,'11111222,11111222,11111222' 
TABS,ioos:station:wmo:42043:1,2002-09-03T18:39:00Z,28.9818,-94.9186,4.0,6.426756569,70.54969922,9.22,'11111222,11111222,11111222' 
TABS,ioos:station:wmo:42043:1,2002-09-03T19:09:00Z,28.9818,-94.9186,4.0,6.422522869,88.39357985,8.97,'11111222,11111222,11111222' 
TABS,ioos:station:wmo:42043:1,2002-09-03T19:39:00Z,28.9818,-94.9186,4.0,8.595888552,111.9998193,13.15,'11111222,11111222,11111222' 
TABS,ioos:station:wmo:42043:1,2002-09-03T20:09:00Z,28.9818,-94.9186,4.0,7.80641403,96.25144073,11.42,'11111222,11111222,11111222' 
TABS,ioos:station:wmo:42043:1,2002-09-03T20:39:00Z,28.9818,-94.9186,4.0,7.029082444,101.8218816,10.28,'11111222,11111222,11111222' 
TABS,ioos:station:wmo:42043:1,2002-09-03T21:09:00Z,28.9818,-94.9186,4.0,7.537333746,102.8012877,11.27,'11111222,11111222,11111222' 
TABS,ioos:station:wmo:42043:1,2002-09-03T21:39:00Z,28.9818,-94.9186,4.0,7.8941624,107.4713082,10.79,'11111222,11111222,11111222' 
TABS,ioos:station:wmo:42043:1,2002-09-03T22:09:00Z,28.9818,-94.9186,4.0,7.728195132,93.93284572,11.14,'11111222,11111222,11111222' 
TABS,ioos:station:wmo:42043:1,2002-09-03T22:39:00Z,28.9818,-94.9186,4.0,6.793121521,85.27097032,11.16,'11111222,11111222,11111222' 
TABS,ioos:station:wmo:42043:1,2002-09-03T23:39:00Z,28.9818,-94.9186,4.0,6.816223294,93.95427295,10.47,'11111222,11111222,11111222' 
TABS,ioos:station:wmo:42043:1,2002-09-04T00:09:00Z,28.9818,-94.9186,4.0,7.66084199,95.91937465,12.05,'11111222,11111222,11111222' 
TABS,ioos:station:wmo:42043:1,2002-09-04T00:39:00Z,28.9818,-94.9186,4.0,7.88,90.00042092,11.94,'11111222,11111222,11111222' 
TABS,ioos:station:wmo:42043:1,2002-09-04T01:09:00Z,28.9818,-94.9186,4.0,8.200054878,90.2100382,12.22,'11111222,11111222,11111222' 
TABS,ioos:station:wmo:42043:1,2002-09-04T01:39:00Z,28.9818,-94.9186,4.0,7.181322998,84.64624894,11.53,'11111222,11111222,11111222' 
TABS,ioos:station:wmo:42043:1,2002-09-04T02:09:00Z,28.9818,-94.9186,4.0,8.055463984,85.4426845,12.39,'11111222,11111222,11111222' 
TABS,ioos:station:wmo:42043:1,2002-09-04T02:39:00Z,28.9818,-94.9186,4.0,8.746073405,86.52541337,13.44,'11111222,11111222,11111222' 
TABS,ioos:station:wmo:42043:1,2002-09-04T03:09:00Z,28.9818,-94.9186,4.0,8.823831367,91.68891922,13.48,'11111222,11111222,11111222' 
TABS,ioos:station:wmo:42043:1,2002-09-04T03:39:00Z,28.9818,-94.9186,4.0,8.673050213,88.4799818,13.23,'11111222,11111222,11111222' 
TABS,ioos:station:wmo:42043:1,2002-09-04T04:09:00Z,28.9818,-94.9186,4.0,8.39486748,103.2917143,12.99,'11111222,11111222,11111222' 
TABS,ioos:station:wmo:42043:1,2002-09-04T04:39:00Z,28.9818,-94.9186,4.0,8.790364043,94.76405147,14.27,'11111222,11111222,11111222' 
TABS,ioos:station:wmo:42043:1,2002-09-04T05:09:00Z,28.9818,-94.9186,4.0,8.348892142,111.6488555,14.11,'11111222,11111222,11111222' 
TABS,ioos:station:wmo:42043:1,2002-09-04T05:39:00Z,28.9818,-94.9186,4.0,6.748540583,107.9520571,11.11,'11111222,11111222,11111222' 
TABS,ioos:station:wmo:42043:1,2002-09-04T06:09:00Z,28.9818,-94.9186,4.0,7.537406716,100.5500078,12.24,'11111222,11111222,11111222' 
TABS,ioos:station:wmo:42043:1,2002-09-04T06:39:00Z,28.9818,-94.9186,4.0,7.071067812,98.13050426,10.26,'11111222,11111222,11111222' 
TABS,ioos:station:wmo:42043:1,2002-09-04T07:09:00Z,28.9818,-94.9186,4.0,6.758520548,94.24306831,10.06,'11111222,11111222,11111222' 
TABS,ioos:station:wmo:42043:1,2002-09-04T07:39:00Z,28.9818,-94.9186,4.0,7.019202234,106.2148765,10.83,'11111222,11111222,11111222' 
TABS,ioos:station:wmo:42043:1,2002-09-04T08:09:00Z,28.9818,-94.9186,4.0,6.644877726,101.9867494,9.99,'11111222,11111222,11111222' 
TABS,ioos:station:wmo:42043:1,2002-09-04T08:39:00Z,28.9818,-94.9186,4.0,6.407261506,94.20707959,9.62,'11111222,11111222,11111222' 
TABS,ioos:station:wmo:42043:1,2002-09-04T09:09:00Z,28.9818,-94.9186,4.0,6.019185991,81.30409654,9.02,'11111222,11111222,11111222' 
TABS,ioos:station:wmo:42043:1,2002-09-04T09:39:00Z,28.9818,-94.9186,4.0,4.743342703,84.31303775,7.77,'11111222,11111222,11111222' 
TABS,ioos:station:wmo:42043:1,2002-09-04T10:09:00Z,28.9818,-94.9186,4.0,5.841318344,81.03717203,8.5,'11111222,11111222,11111222' 
TABS,ioos:station:wmo:42043:1,2002-09-04T10:39:00Z,28.9818,-94.9186,4.0,5.923250797,70.98347747,9.14,'11111222,11111222,11111222' 
TABS,ioos:station:wmo:42043:1,2002-09-04T11:09:00Z,28.9818,-94.9186,4.0,5.300764096,89.02672766,8.5,'11111222,11111222,11111222' 
TABS,ioos:station:wmo:42043:1,2002-09-04T11:39:00Z,28.9818,-94.9186,4.0,5.826971769,84.48468039,8.45,'11111222,11111222,11111222' 
TABS,ioos:station:wmo:42043:1,2002-09-04T12:09:00Z,28.9818,-94.9186,4.0,7.181490096,76.06011884,10.82,'11111222,11111222,11111222' 
TABS,ioos:station:wmo:42043:1,2002-09-04T12:39:00Z,28.9818,-94.9186,4.0,8.234609888,71.7406963,12.21,'11111222,11111222,11111222' 
TABS,ioos:station:wmo:42043:1,2002-09-04T13:09:00Z,28.9818,-94.9186,4.0,7.161319711,61.10823366,10.33,'11111222,11111222,11111222' 
TABS,ioos:station:wmo:42043:1,2002-09-04T13:39:00Z,28.9818,-94.9186,4.0,7.287585334,54.32489187,10.6,'11111222,11111222,11111222' 
TABS,ioos:station:wmo:42043:1,2002-09-04T14:09:00Z,28.9818,-94.9186,4.0,8.477027781,54.0219826,12.67,'11111222,11111222,11111222' 
TABS,ioos:station:wmo:42043:1,2002-09-04T14:39:00Z,28.9818,-94.9186,4.0,7.683176426,63.23448963,11.2,'11111222,11111222,11111222' 
TABS,ioos:station:wmo:42043:1,2002-09-04T15:09:00Z,28.9818,-94.9186,4.0,6.891654373,63.73203392,9.83,'11111222,11111222,11111222' 
TABS,ioos:station:wmo:42043:1,2002-09-04T15:39:00Z,28.9818,-94.9186,4.0,8.900275277,61.47652718,13.13,'11111222,11111222,11111222' 
TABS,ioos:station:wmo:42043:1,2002-09-04T16:09:00Z,28.9818,-94.9186,4.0,9.010022198,68.44620101,12.64,'11111222,11111222,11111222' 
TABS,ioos:station:wmo:42043:1,2002-09-04T16:39:00Z,28.9818,-94.9186,4.0,7.132524097,61.53022936,10.1,'11111222,11111222,11111222' 
TABS,ioos:station:wmo:42043:1,2002-09-04T17:09:00Z,28.9818,-94.9186,4.0,6.463946163,72.06922081,9.76,'11111222,11111222,11111222' 
TABS,ioos:station:wmo:42043:1,2002-09-04T17:39:00Z,28.9818,-94.9186,4.0,7.181650228,71.23669659,11.02,'11111222,11111222,11111222' 
TABS,ioos:station:wmo:42043:1,2002-09-04T18:09:00Z,28.9818,-94.9186,4.0,10.65701647,75.98944747,14.83,'11111222,11111222,11111222' 
TABS,ioos:station:wmo:42043:1,2002-09-04T18:39:00Z,28.9818,-94.9186,4.0,10.28634532,78.50396809,15.51,'11111222,11111222,11111222' 
TABS,ioos:station:wmo:42043:1,2002-09-04T19:09:00Z,28.9818,-94.9186,4.0,10.24910728,77.08879494,14.94,'11111222,11111222,11111222' 
TABS,ioos:station:wmo:42043:1,2002-09-04T19:39:00Z,28.9818,-94.9186,4.0,9.282720506,50.37586596,13.16,'11111222,11111222,11111222' 
TABS,ioos:station:wmo:42043:1,2002-09-04T20:09:00Z,28.9818,-94.9186,4.0,5.858344476,70.14185593,10.14,'11111222,11111222,11111222' 
TABS,ioos:station:wmo:42043:1,2002-09-04T20:39:00Z,28.9818,-94.9186,4.0,7.369124778,69.0067748,12.46,'11111222,11111222,11111222' 
TABS,ioos:station:wmo:42043:1,2002-09-04T21:09:00Z,28.9818,-94.9186,4.0,7.169337487,64.11367068,11.58,'11111222,11111222,11111222' 
TABS,ioos:station:wmo:42043:1,2002-09-04T21:39:00Z,28.9818,-94.9186,4.0,9.883420461,57.98198079,15.71,'11111222,11111222,11111222' 
TABS,ioos:station:wmo:42043:1,2002-09-04T22:09:00Z,28.9818,-94.9186,4.0,9.068384641,69.60626918,13.4,'11111222,11111222,11111222' 
TABS,ioos:station:wmo:42043:1,2002-09-04T22:39:00Z,28.9818,-94.9186,4.0,7.717259876,78.41302533,11.95,'11111222,11111222,11111222' 
TABS,ioos:station:wmo:42043:1,2002-09-04T23:09:00Z,28.9818,-94.9186,4.0,6.056277735,74.28813199,11.56,'11111222,11111222,11111222' 
TABS,ioos:station:wmo:42043:1,2002-09-04T23:39:00Z,28.9818,-94.9186,4.0,9.91631484,55.4762579,13.47,'11111222,11111222,11111222' 
TABS,ioos:station:wmo:42043:1,2002-09-05T00:09:00Z,28.9818,-94.9186,4.0,3.633854703,70.71701896,6.98,'11111222,11111222,11111222' 
TABS,ioos:station:wmo:42043:1,2002-09-05T00:39:00Z,28.9818,-94.9186,4.0,9.304219473,62.19521411,13.53,'11111222,11111222,11111222' 